Preview of NWS' New Version of Forecast
This preview is not operational and should not be used for support decisions.
Latest weather observations around

Bedford, Hanscom Field (KBED)

Using International System of Units (Switch to English Units)
Date/ Time (EDT) Wind (kph) Vis. (km) Weather Sky Cond. Temp (°C) Rel. Humidity Wind Chill (°C) Heat Index (°C) Pressure Precip. (cm)
Air Dwpt 6 hour Altimeter (hPa) Sea level (hPa) 1 hr 3 hr 6 hr
Max Min
Jul 16 14:56 WSW 9 16.09 Mostly Clear FEW110 31 15     38%   31 1015.9 1016.8      
Jul 16 13:56 SW 17 16.09 Mostly Clear FEW110 31 16     39%   31 1015.9 1016.9      
Jul 16 12:56 SSW 13 16.09 Clear CLR 30 16     42%   30 1016.6 1017.6      
Jul 16 11:56 SSW 17 16.09 Clear CLR 29 16     44%   29 1016.9 1018.1      
Jul 16 10:56 SW 9 16.09 Clear CLR 28 16     46%   28 1017.3 1018.4      
Jul 16 09:56 SSW 13 16.09 Clear CLR 27 16     51%   27 1017.6 1018.8      
Jul 16 08:56 WSW 5 16.09 Clear CLR 24 16     60%   24 1018.3 1019.3      
Jul 16 07:56 Calm 16.09 Clear CLR 22 16     68%   22 1018.3 1019.3      
Jul 16 06:56 Calm 16.09 Clear CLR 19 15     78%     1018 1019.1      
Jul 16 05:56 Calm 16.09 Clear CLR 16 13     83%     1017.6 1018.7      
Jul 16 04:56 Calm 16.09 Clear CLR 16 13     83%     1017.3 1018.2      
Jul 16 03:56 Calm 16.09 Clear CLR 17 13     80%     1016.9 1018.1      
Jul 16 02:56 Calm 16.09 Clear CLR 17 13     78%     1016.9 1018      
Jul 16 01:56 Calm 16.09 Clear CLR 17 13     78%     1017.3 1018.2      
Jul 16 00:56 Calm 16.09 Clear   18 14     76%     1016.9 1018      
Jul 15 23:56 Calm 16.09 Clear CLR 18 14     81%     1016.9 1017.9      
Jul 15 22:56 Calm 16.09 Clear CLR 20 14     70%     1016.9 1017.8      
Jul 15 21:56 SW 8 16.09 Clear CLR 20 14     70%     1016.6 1017.5      
Jul 15 20:56 WNW 5 16.09 Clear CLR 23 14     56%   23 1015.9 1016.9      
Jul 15 19:56 WNW 13 16.09 Clear CLR 26 14     48%   25 1015.2 1016.4      
Jul 15 18:56 WNW 11 16.09 Clear CLR 27 14     45%   27 1014.9 1016      
Jul 15 17:56 WNW 18 16.09 Clear CLR 29 13     36%   29 1014.9 1015.8      
Jul 15 16:56 W 17 16.09 Clear CLR 30 13     35%   29 1014.6 1015.7      
Jul 15 15:56 WNW 21 16.09 Clear CLR 30 13     35%   29 1014.9 1016      
Jul 15 14:56 WNW 17 16.09 Clear CLR 29 13     37%   29 1015.2 1016.2      
Jul 15 13:56 NW 22 16.09 Mostly Clear FEW055 29 13     37%   29 1015.6 1016.4      
Jul 15 12:56 W 24 16.09 Partly Cloudy SCT060 28 13     38%   28 1015.9 1017.1      
Jul 15 11:56 WNW 17 16.09 Mostly Cloudy SCT060 BKN250 27 13     41%   27 1016.3 1017.4      
Jul 15 10:56 WNW 15 16.09 Mostly Cloudy FEW060 BKN200 26 13     45%   26 1016.6 1017.5      
Jul 15 09:56 NNW 15 16.09 Mostly Cloudy BKN200 26 13     47%   25 1016.6 1017.6      
Jul 15 08:56 NW 21 16.09 Clear CLR 24 13     52%   24 1016.6 1017.6      
Jul 15 07:56 W 11 16.09 Clear CLR 23 14     59%   23 1016.3 1017.3      
Jul 15 06:56 W 9 16.09 Mostly Cloudy BKN200 21 14     66%     1016.3 1017.2      
Jul 15 05:56 W 5 16.09 Clear CLR 19 14     73%     1015.9 1016.8      
Jul 15 04:56 W 9 16.09 Clear CLR 19 13     68%     1015.6 1016.5      
Jul 15 03:56 NW 11 16.09 Clear CLR 19 13     68%     1014.9 1015.9      
Jul 15 02:56 NW 15 16.09 Clear CLR 21 14     65%     1014.9 1015.8      
Jul 15 01:56 WNW 11 16.09 Clear CLR 21 14     65%     1014.6 1015.5      
Jul 15 00:56 NW 9 16.09 Clear CLR 22 14     61%   22 1014.6 1015.4      
Jul 14 23:56 N 8 16.09 Clear CLR 23 14     59%   23 1014.2 1015.1      
Jul 14 22:56 NNW 11 16.09 Clear CLR 22 16     66%   22 1013.9 1014.7      
Jul 14 21:56 WNW 8 16.09 Clear CLR 24 16     60%   24 1013.6 1014.4      
Jul 14 20:56 WNW 9 16.09 Partly Cloudy SCT060 26 17     60%   26 1012.5 1013.4      
Jul 14 19:56 WNW 9 16.09 Mostly Cloudy BKN070 28 18     55%   29 1011.5 1012.4      
Jul 14 18:56 WNW 13 16.09 Mostly Clear FEW090 29 18     50%   30 1010.8 1011.6      
Jul 14 17:56 NW 15 16.09 Clear CLR 31 17     43%   32 1010.5 1011.4      
Jul 14 16:56 NNW 15 16.09 Mostly Cloudy SCT080 BKN095 31 17     43%   31 1010.2 1011.1      
Jul 14 15:56 W 9 16.09 Mostly Cloudy SCT080 BKN095 33 17     38%   33 1009.8 1010.8      
Jul 14 14:56 NW 13 16.09 Mostly Cloudy SCT060 BKN200 32 16     38%   32 1009.8 1010.9      
Jul 14 13:56 NW 21 16.09 Mostly Clear FEW060 33 17     38%   33 1010.2 1011.2      
Jul 14 12:56 W 18 16.09 Mostly Cloudy SCT045 BKN200 31 17     42%   31 1010.5 1011.5      
Jul 14 11:56 W 15 16.09 Mostly Clear FEW130 32 18     42%   33 1010.8 1011.7      
Jul 14 10:56 NW 8 16.09 Mostly Clear FEW130 31 19     50%   32 1010.8 1011.7      
Jul 14 09:56 WNW 15 16.09 Mostly Clear FEW110 30 19     51%   31 1010.8 1011.9      
Jul 14 08:56 SW 9 16.09 Mostly Clear FEW110 28 19     59%   30 1011.2 1012.1      
Jul 14 07:56 WSW 11 16.09 Mostly Clear FEW110 26 19     65%   26 1011.2 1012.1      
Jul 14 06:56 WSW 8 16.09 Partly Cloudy SCT110 24 19     74%   24 1011.2 1012.1      
Jul 14 05:56 WSW 5 16.09 Mostly Clear FEW120 22 18     79%   23 1010.8 1011.8      
Jul 14 04:56 SW 9 16.09 Partly Cloudy SCT110 23 18     76%   23 1010.8 1011.6      
Jul 14 03:56 SSW 5 16.09 Partly Cloudy SCT120 22 18     79%   23 1010.2 1011.2      
Jul 14 02:56 SSW 5 16.09 Clear CLR 23 18     76%   23 1010.2 1011      
Jul 14 01:56 SW 8 16.09 Cloudy OVC100 23 18     74%   24 1010.5 1011.4      
Jul 14 00:56 Calm 16.09 Clear CLR 22 18     76%   22 1010.8 1011.8      
Jul 13 23:56 Calm 16.09 Clear CLR 23 18     76%   23 1011.2 1012.2      
Jul 13 22:56 Calm 16.09 Clear CLR 24 18     71%   24 1011.2 1012.3      
Jul 13 21:56 Calm 16.09 Clear CLR 24 18     69%   25 1011.2 1012.1      
Jul 13 20:56 SW 8 16.09 Clear CLR 26 18     64%   26 1010.5 1011.6      
Jul 13 19:56 SSW 9 16.09 Clear CLR 27 19     61%   28 1010.5 1011.4      
Jul 13 18:56 WSW 8 16.09 Mostly Clear FEW045 30 17     46%   30 1010.2 1011.1      
Jul 13 17:56 W 15 16.09 Clear CLR 31 17     42%   31 1010.5 1011.3      
Jul 13 16:56 WSW 13 16.09 Clear CLR 31 17     43%   31 1010.5 1011.5      
Jul 13 15:56 W 11 16.09 Mostly Cloudy BKN055 32 16     39%   32 1010.5 1011.5      
Jul 13 14:56 W 11 16.09 Mostly Cloudy BKN055 32 17     41%   32 1010.8 1011.7      
Jul 13 13:56 8 16.09 Mostly Cloudy BKN055 31 17     45%   31 1011.2 1012.1      
Jul 13 12:56 WNW 13 16.09 Partly Cloudy SCT060 31 16     42%   31 1011.5 1012.4      
Jul 13 11:56 WNW 17 16.09 Partly Cloudy SCT060 29 17     48%   29 1011.9 1012.9      
Jul 13 10:56 W 11 16.09 Mostly Clear FEW060 28 17     51%   29 1011.9 1013      
Jul 13 09:56 NNW 13 16.09 Clear CLR 27 17     53%   28 1011.9 1012.9      
Jul 13 08:56 NW 17 16.09 Clear CLR 26 17     56%   26 1011.9 1012.9      
Jul 13 07:56 WNW 9 16.09 Partly Cloudy SCT140 24 17     64%   25 1011.5 1012.5      
Jul 13 06:56 W 9 16.09 Partly Cloudy SCT140 22 17     73%   22 1011.2 1012.1      
Jul 13 05:56 W 5 16.09 Partly Cloudy SCT075 21 17     76%     1010.5 1011.5      
Jul 13 03:56 WNW 9 16.09 Mostly Cloudy BKN080 22 17     76%   22 1009.2 1010      
Jul 13 02:56 NW 11 16.09 Cloudy FEW065 OVC080 22 18     79%   23 1008.8 1009.8      
Jul 13 01:56 NW 9 16.09 Clear   23 19     81%   23 1008.5 1009.3     0
Jul 13 01:09 WNW 9 9.66 Fog/Mist FEW003 OVC080 23 21     87%   23 1008.5        
Jul 13 01:02 WNW 9 4.02 Haze SCT003 OVC075 23 20     84%   23 1008.1        
Jul 13 00:56 WNW 5 2.01 Fog/Mist BKN003 OVC075 23 21     87%   23 1008.1 1009.2      
Jul 13 00:50 Calm 4.02 Fog/Mist BKN003 BKN075 23 21     89%   24 1008.1        
Jul 13 00:35 Calm 12.87 Mostly Cloudy SCT003 BKN080 23 20     84%   23 1008.1        
Jul 12 23:56 Calm 16.09 Clear CLR 23 20     84%   23 1008.1 1009.1      
Jul 12 22:56 Calm 16.09 Mostly Clear FEW050 24 21     82%   24 1008.1 1009   0  
Jul 12 21:56 ESE 11 16.09 Cloudy OVC048 25 21     79%   26 1007.5 1008.6 0    
Jul 12 21:11 Calm 16.09 Cloudy SCT011 OVC038 26 22     79%   28 1007.1   0    
Jul 12 21:03 Calm 16.09 Light Rain BKN011 BKN024 OVC038 26 22     82%   26 1006.8   0    
Jul 12 20:56 Calm 16.09 Light Rain SCT015 BKN055 OVC120 26 22     79%   28 1006.8 1007.9 0    
Jul 12 19:56 S 8 16.09 Partly Cloudy FEW018 SCT060 SCT085 27 22     76%   29 1005.8 1006.9     0
Jul 12 18:56 S 5 16.09 Partly Cloudy SCT016 SCT040 27 23     77%   30 1005.4 1006.3      
Jul 12 17:56 Calm 16.09 Partly Cloudy SCT016 SCT040 28 23     72%   32 1004.4 1005.3      
Jul 12 16:56 8 16.09 Mostly Cloudy FEW015 SCT030 BKN040 27 23     79%   29 1004.4 1005.5   0  
Jul 12 15:56 Calm 16.09 Mostly Cloudy FEW015 SCT030 BKN040 24 21     82%   25 1004.8 1005.8 0    
Jul 12 15:44 W 9 3.22 Light Rain BKN029 BKN036 24 21     82%   24 1004.8   0    
Jul 12 15:25 W 5 3.22 Light Rain BKN029 BKN036 24 21     82%   24 1004.4   0    
Jul 12 15:15 WNW 11 3.22 Thunderstorms and Heavy Rain BKN029 BKN036 24 20     79%   24 1004.8   0    
Jul 12 14:59 NW 17 16.09 Thunderstorms FEW038 BKN060 30 21     57%   32 1004.4        
Jul 12 14:56 NNW 13 16.09 Mostly Cloudy SCT029 BKN034 30 20     55%   32 1004.4 1005.4      
Jul 12 14:46 NNW 5 16.09 Mostly Cloudy SCT029 BKN034 32 21     52%   34 1004.4        
Jul 12 14:03 N 11 16.09 Partly Cloudy SCT030 31 21     55%   34 1004.4        
Jul 12 13:56 8 16.09 Mostly Cloudy BKN012 BKN034 31 21     57%   33 1004.4 1005.2     0
Jul 12 13:10 NNW 8 16.09 Mostly Cloudy BKN012 BKN034 29 21     61%   32 1004.8        
Jul 12 13:03 NW 13 16.09 Mostly Cloudy FEW017 SCT024 BKN034 29 22     63%   32 1004.8        
Jul 12 12:56   16.09 Mostly Cloudy BKN012 BKN034 29 22     65%   32 1004.8 1005.8      
Jul 12 12:16 WNW 11 16.09 Mostly Cloudy BKN012 BKN020 27 22     72%   29 1005.1        
Jul 12 12:03 NW 13 16.09 Cloudy FEW014 OVC032 27 22     72%   29 1005.1        
Jul 12 11:56 N 9 16.09 Mostly Cloudy BKN012 BKN020 27 22     72%   29 1005.1 1006.2      
Jul 12 11:31 N 9 16.09 Mostly Cloudy BKN012 BKN020 26 22     77%   28 1005.1        
Jul 12 11:14   16.09 Mostly Cloudy BKN009 BKN016 BKN026 27 22     72%   29 1005.1        
Jul 12 11:05 N 8 16.09 Cloudy BKN010 BKN015 OVC029 27 22     74%   29 1005.1        
Jul 12 10:56 NNW 8 16.09 Cloudy BKN009 OVC016 26 22     79%   26 1005.1 1006.1   0  
Jul 12 10:06 N 8 16.09 Cloudy BKN006 BKN017 OVC034 25 21     79%   26 1005.1        
Jul 12 09:56 N 8 16.09 Cloudy SCT006 BKN017 OVC026 25 22     82%   26 1005.4 1006.3 0    
Jul 12 09:28 NNW 8 16.09 Cloudy BKN006 OVC023 24 21     84%   25 1005.4   0    
Jul 12 08:56 Calm 4.83 Light Rain BKN004 24 21     84%   25 1005.4 1006.5 0    
Jul 12 08:37 NE 8 9.66 Light Rain BKN004 24 21     84%   25 1005.4   0    
Jul 12 08:28 E 8 3.22 Rain and Fog/Mist SCT004 BKN039 OVC080 23 21     87%   24 1005.8   0    
Jul 12 08:18 E 9 2.82 Heavy Rain BKN004 BKN039 OVC055 23 21     85%   24 1005.4   0    
Jul 12 07:56 NE 8 6.44 Light Rain and Fog/Mist OVC004 23 21     87%   23 1005.8 1006.8 1   3
Jul 12 07:53 NE 8 4.83 Light Rain and Fog/Mist OVC004 23 21     89%   24 1005.8   1    
Jul 12 07:16 N 8 2.82 Heavy Rain OVC004 23 20     84%   23 1005.8   0    
Jul 12 06:56 N 8 4.83 Light Rain OVC004 23 20     84%   23 1005.8 1006.8 0    
Jul 12 05:56 SE 13 16.09 Mostly Cloudy BKN004 23 20     84%   23 1005.1 1006.1 0    
Jul 12 05:42 ESE 11 16.09 Light Rain SCT004 BKN016 BKN090 23 20     84%   23 1005.1   0    
Jul 12 05:34 ESE 9 14.48 Light Rain SCT004 BKN075 BKN110 23 20     84%   23 1005.1   0    
Jul 12 05:21 ESE 8 11.27 Light Rain BKN004 BKN048 OVC100 23 20     84%   23 1005.4   0    
Jul 12 04:56 ESE 9 6.44 Heavy Rain FEW006 BKN048 OVC065 23 20     84%   23 1005.8 1006.9 0 2  
Jul 12 04:01 ESE 9 11.27 Light Rain FEW008 BKN035 OVC100 23 20     84%   23 1006.8   0    
Jul 12 03:56 ESE 11 11.27 Light Rain FEW010 BKN022 OVC100 23 20     84%   23 1006.8 1007.7 0    
Jul 12 03:34 E 9 11.27 Light Rain FEW006 BKN012 OVC026 22 20     87%   23 1007.1   0    
Jul 12 03:23 E 5 6.44 Rain and Fog/Mist BKN006 BKN014 OVC020 22 20     87%   23 1007.5   0    
Jul 12 03:14 ENE 5 4.83 Rain SCT005 BKN013 OVC024 22 19     84%   23 1007.5   0    
Jul 12 03:12 ENE 8 4.02 Rain BKN005 BKN013 OVC024 22 19     84%   23 1007.5   0    
Jul 12 02:56 N 8 4.02 Heavy Rain SCT005 BKN013 OVC044 22 19     84%   23 1007.8 1008.9 1    
Jul 12 02:49 NNW 9 4.83 Rain FEW008 BKN024 OVC044 22 19     84%   23 1007.8   1    
Jul 12 02:45 NE 8 4.02 Rain FEW017 BKN024 OVC044 22 19     84%   23 1007.8   1    
Jul 12 02:21 S 5 4.83 Rain FEW014 BKN042 OVC050 22 19     84%   23 1008.5   1    
Jul 12 02:07 SSE 9 2.82 Heavy Rain FEW014 BKN045 OVC100 22 19     84%   23 1008.5   0    
Jul 12 01:56 S 9 11.27 Rain FEW043 SCT055 OVC100 22 19     84%   23 1008.8 1009.7 0   1
Jul 12 00:56 SE 11 6.44 Heavy Rain FEW027 SCT044 OVC060 23 19     81%   23 1009.2 1010.2 0    
Jul 12 00:50 SSE 9 4.83 Rain FEW027 SCT038 OVC065 23 19     78%   23 1009.5   0    
Jul 12 00:42 SSE 8 2.82 Heavy Rain SCT028 BKN036 OVC070 23 19     81%   23 1009.5   0    
Jul 11 23:56 S 15 16.09 Cloudy FEW070 OVC110 24 19     74%   24 1009.8 1010.7      
Jul 11 22:56 S 11 16.09 Cloudy OVC110 24 19     74%   24 1010.5 1011.4 0 0  
Jul 11 21:56 S 13 16.09 Cloudy OVC110 24 19     71%   25 1010.8 1012      
Jul 11 20:56 S 15 16.09 Mostly Cloudy FEW030 BKN140 24 19     71%   25 1010.8 1011.9      
Jul 11 19:56 S 17 16.09 Mostly Cloudy FEW030 BKN140 26 17     58%   26 1011.2 1012.2     1
Jul 11 18:56 SSE 17 16.09 Mostly Cloudy FEW030 BKN140 27 17     56%   27 1010.8 1011.8      
Jul 11 17:56 S 13 16.09 Mostly Cloudy SCT022 BKN065 27 17     54%   28 1011.2 1012.1      
Jul 11 16:56 S 28 16.09 Mostly Cloudy SCT022 BKN065 27 17     54%   28 1011.2 1012.3   1  
Jul 11 15:56 S 18 16.09 Cloudy BKN022 OVC065 28 19     60%   29 1011.5 1012.6 0    
Jul 11 15:53 S 21 16.09 Cloudy BKN022 OVC065 28 19     58%   29 1011.5   0    
Jul 11 14:56 S 18 9.66 Light Rain FEW026 SCT046 OVC065 25 21     79%   26 1012.5 1013.4 1    
Jul 11 14:44 S 17 2.41 Light Rain and Fog/Mist FEW016 BKN037 OVC065 24 21     82%   25 1012.5   1    
Jul 11 14:37 S 21 0.8 Heavy Rain and Fog/Mist BKN007 OVC070 24 21     84%   25 1012.5   1    
Notice The following observation data may not be complete
Jul 11 14:25   0.8 Heavy Rain and Fog/Mist BKN007 OVC070   21      %     1012.9   1    
Jul 11 14:21   3.22 Light Rain and Fog/Mist FEW009 BKN033 OVC070 24 21     79%   25 1012.5   0    
Jul 11 14:03 S 17 16.09 Mostly Cloudy FEW029 SCT033 BKN065 31 21     55%   33 1012.2        
Jul 11 13:56 S 17 16.09 Mostly Cloudy BKN029 BKN060 30 21     59%   33 1012.2 1013.3     0
Jul 11 12:56 SSE 18 16.09 Mostly Cloudy BKN024 29 21     63%   31 1013.2 1014.2      
Jul 11 11:56 SE 15 16.09 Mostly Clear FEW120 28 21     65%   30 1013.9 1014.9      
Jul 11 11:04 SSW 15 16.09 Partly Cloudy SCT017 27 21     67%   29 1014.2        
Jul 11 10:56 S 15 12.87 Mostly Cloudy BKN017 28 21     67%   30 1014.2 1015.2   0  
Jul 11 10:17 SSE 13 12.87 Partly Cloudy SCT019 28 21     63%   30 1014.2        
Notice The following observation data may not be complete
Jul 11 10:03 S 11 16.09 Mostly Cloudy BKN018   21      %     1014.6        
Notice The following observation data may not be complete
Jul 11 09:56 SSE 13 16.09 Partly Cloudy SCT018   21      %     1014.6 1015.6      
Jul 11 08:56 Calm 16.09 Clear CLR 26 19     69%   26 1015.2 1016.1 0    
Jul 11 07:56 NNE 5 14.48 Mostly Cloudy BKN250 23 18     76%   23 1015.6 1016.5      
Jul 11 06:56 Calm 11.27 Clear CLR 21 17     78%     1015.6 1016.5      
Jul 11 05:56 Calm 16.09 Clear CLR 18 16     84%     1015.2 1016.4      
Jul 11 04:56 Calm 16.09 Clear CLR 18 16     84%     1014.9 1016      
Jul 11 02:56 Calm 16.09 Clear CLR 19 16     81%     1014.6 1015.7      
Jul 11 01:56 N 5 16.09 Clear CLR 20 17     81%     1014.9 1015.9      
Jul 11 00:56 Calm 16.09 Clear CLR 21 17     78%     1014.6 1015.6      
Jul 10 23:56 Calm 16.09 Clear CLR 21 16     73%     1014.6 1015.6      
Jul 10 22:56 Calm 16.09 Clear CLR 22 16     70%   22 1014.9 1016      
Jul 10 21:56 Calm 16.09 Clear CLR 23 16     64%   23 1015.2 1016.2      
Jul 10 20:56 ENE 8 16.09 Clear CLR 25 16     58%   25 1014.9 1016      
Jul 10 17:56 E 15 16.09 Mostly Cloudy SCT080 BKN250 30 16     43%   30 1014.9 1016      
Jul 10 16:56 E 18 16.09 Cloudy BKN075 OVC090 29 16     43%   29 1014.9 1016.1      
Jul 10 15:56 Calm 16.09 Partly Cloudy SCT080 33 14     32%   32 1014.9 1016      
Jul 10 14:56 S 11 16.09 Mostly Clear FEW075 32 14     35%   31 1015.2 1016.1      
Jul 10 13:56 Calm 16.09 Partly Cloudy SCT070 32 15     36%   31 1015.2 1016.3      
Jul 10 12:56 SSE 11 16.09 Clear   32 16     39%   32 1015.6 1016.7      
Jul 10 11:56 Calm 16.09 Clear CLR 32 16     38%   32 1016.3 1017.2      
Jul 10 10:56 NW 5 16.09 Clear CLR 31 14     36%   30 1016.3 1017.4      
Jul 10 09:56 5 16.09 Clear CLR 29 17     48%   29 1016.9 1018      
Jul 10 08:56 5 16.09 Clear CLR 27 17     56%   27 1017.3 1018.2      
Jul 10 08:49 WNW 5 16.09 Clear CLR 26 17     56%   26 1017.3        
Jul 10 07:56 WSW 8 16.09 Clear CLR 23 17     68%   23 1016.9 1018.1      
Jul 10 06:56 Calm 16.09 Clear CLR 20 16     76%     1016.9 1017.9      
Jul 10 05:56 Calm 16.09 Clear CLR 18 14     81%     1016.3 1017.4      
Jul 10 04:56 Calm 16.09 Clear CLR 17 14     81%     1016.3 1017.3      
Jul 10 03:56 Calm 16.09 Clear CLR 17 14     81%     1015.9 1017      
Jul 10 02:56 Calm 16.09 Clear CLR 18 14     81%     1015.9 1017      
Jul 10 01:56 Calm 16.09 Clear CLR 18 15     81%     1016.3 1017.3      
Jul 10 00:56 Calm 16.09 Clear CLR 18 15     81%     1016.3 1017.3      
Jul 09 23:56 Calm 16.09 Clear CLR 20 15     73%     1016.3 1017.2      
Jul 09 22:56 Calm 16.09 Clear CLR 21 16     75%     1016.3 1017.2      
Jul 09 21:56 Calm 16.09 Clear   23 17     68%   23 1015.9 1017.1      
Jul 09 20:56 Calm 16.09 Partly Cloudy SCT200 23 17     69%   23 1015.6 1016.7      
Jul 09 19:56 SW 5 16.09 Clear CLR 27 16     52%   27 1014.9 1016      
Jul 09 18:56 WSW 8 16.09 Clear CLR 29 14     40%   29 1014.6 1015.7      
Jul 09 17:56 W 11 16.09 Clear CLR 31 12     30%   30 1014.6 1015.6      
Jul 09 16:56 WNW 13 16.09 Clear CLR 32 11     28%   30 1014.6 1015.7      
Jul 09 15:56 8 16.09 Clear CLR 32 11     27%   31 1014.9 1016      
Jul 09 14:56 NNW 8 16.09 Mostly Clear FEW250 32 11     27%   30 1015.2 1016.2      
Jul 09 13:56 WNW 11 16.09 Clear CLR 32 11     28%   30 1015.2 1016.3      
Jul 09 12:56 N 17 16.09 Mostly Clear FEW250 31 10     27%   30 1015.6 1016.5      
Jul 09 10:56 NW 15 16.09 Clear CLR 29 12     34%   28 1016.3 1017.3      
Jul 09 09:56 NW 13 16.09 Clear CLR 28 13     40%   27 1016.3 1017.3      
Jul 09 08:56 NW 11 16.09 Clear CLR 26 13     44%   26 1016.3 1017.3      
Jul 09 07:56 Calm 16.09 Clear CLR 22 14     61%   22 1016.3 1017.2      
Jul 09 06:56 Calm 16.09 Clear CLR 18 14     78%     1016.3 1017.2      
Jul 09 05:56 Calm 16.09 Clear CLR 16 12     80%     1015.9 1016.9      
Jul 09 04:56 Calm 16.09 Clear CLR 15 12     83%     1015.2 1016.2      
Jul 09 03:56 Calm 16.09 Clear CLR 16 13     83%     1014.9 1015.8      
Jul 09 02:56 Calm 16.09 Clear CLR 16 13     81%     1014.2 1015.2      
Jul 09 01:56 Calm 16.09 Clear CLR 17 13     80%     1014.2 1015.3      
Jul 09 00:56 Calm 16.09 Clear CLR 17 13     80%     1014.6 1015.5      
Jul 08 23:56 Calm 16.09 Clear CLR 17 13     80%     1014.2 1015.3      
Jul 08 22:56 Calm 16.09 Clear CLR 18 14     76%     1014.6 1015.5      
Jul 08 21:56 Calm 16.09 Clear CLR 20 14     68%     1014.6 1015.5      
Notice The following observation data may not be complete
Jul 08 20:56 SSE 5 16.09 Clear CLR   13      %     1013.9 1014.9      
Jul 08 19:56 S 5 16.09 Clear CLR 26 14     50%   26 1013.6 1014.6      
Jul 08 17:56 WNW 8 16.09 Clear CLR 29 10     31%   28 1013.2 1014.1      
Jul 08 16:56 NW 5 16.09 Clear CLR 29 11     31%   28 1013.2 1014.4      
Jul 08 15:56 NW 8 16.09 Clear CLR 29 9     29%   28 1013.6 1014.6      
Jul 08 14:56 Calm 16.09 Mostly Cloudy BKN200 29 12     35%   28 1013.9 1014.9      
Jul 08 13:56 SSW 9 16.09 Clear CLR 28 12     37%   27 1014.9 1015.7      
Jul 08 12:56 Calm 16.09 Mostly Cloudy BKN200 27 11     35%   27 1014.9 1015.9      
Jul 08 11:56 SSE 8 16.09 Clear CLR 27 12     39%   26 1015.6 1016.5      
Jul 08 10:56 5 16.09 Mostly Cloudy BKN200 26 12     43%   25 1015.9 1016.8      
Jul 08 09:56 8 16.09 Partly Cloudy SCT200 24 12     47%   24 1015.9 1016.8      
Jul 08 08:56 N 9 16.09 Partly Cloudy SCT200 23 12     50%   23 1015.6 1016.7      
Jul 08 07:56 Calm 16.09 Clear CLR 21 13     63%     1015.6 1016.5      
Jul 08 06:56 Calm 16.09 Clear CLR 17 13     75%     1015.2 1016.3      
Jul 08 05:56 Calm 16.09 Clear CLR 14 11     83%     1014.9 1016      
Jul 08 04:56 Calm 16.09 Clear CLR 14 12     84%     1014.6 1015.7      
Jul 08 03:56 Calm 16.09 Clear CLR 14 12     84%     1014.6 1015.7      
Jul 08 02:56 Calm 16.09 Clear CLR 16 13     83%     1014.6 1015.6      
Jul 08 01:56 Calm 16.09 Clear CLR 15 12     83%     1014.6 1015.5      
Jul 08 00:56 Calm 16.09 Clear CLR 16 13     81%     1014.2 1015.3      
Jul 07 23:56 NW 5 16.09 Clear CLR 18 14     78%     1014.2 1015.5      
Jul 07 22:56 Calm 16.09 Clear CLR 18 14     76%     1014.2 1015.4      
Jul 07 21:56 NE 5 16.09 Clear CLR 19 13     68%     1013.9 1014.9      
Jul 07 20:56 E 9 16.09 Clear CLR 22 14     63%   22 1013.2 1014.3      
Jul 07 19:56 E 9 16.09 Clear   24 14     54%   24 1012.5 1013.4      
Jul 07 18:56 5 16.09 Clear CLR 28 15     46%   28 1011.9 1012.9      
Jul 07 17:56 S 11 16.09 Mostly Clear FEW080 28 16     47%   28 1011.5 1012.6      
Jul 07 16:56 SE 11 16.09 Partly Cloudy SCT080 27 15     47%   27 1012.2 1013.1      
Jul 07 15:56 S 13 16.09 Partly Cloudy SCT080 27 14     45%   27 1012.5 1013.5      
Jul 07 14:56 9 16.09 Clear CLR 27 13     42%   27 1013.2 1014.2      
Jul 07 13:56 Calm 16.09 Mostly Clear FEW080 27 12     41%   26 1013.6 1014.6      
Jul 07 12:56 NNE 15 16.09 Mostly Clear FEW080 26 13     45%   26 1014.2 1015.3      
Jul 07 11:56 E 8 16.09 Clear   24 12     45%   24 1014.6 1015.6      
Jul 07 10:56 NE 15 16.09 Mostly Clear FEW080 24 12     46%   24 1014.6 1015.6      
Jul 07 09:56 NE 18 16.09 Partly Cloudy SCT070 23 11     48%   22 1014.9 1015.8      
Jul 07 08:56 NE 21 16.09 Mostly Cloudy BKN065 22 11     49%   21 1014.6 1015.6      
Jul 07 07:56 ENE 21 16.09 Mostly Cloudy FEW017 BKN055 22 15     66%   22 1013.9 1014.8      
Jul 07 06:56 NNE 9 16.09 Mostly Cloudy BKN050 22 18     76%   22 1013.2 1014.1      
Jul 07 05:56 NE 5 16.09 Mostly Clear FEW090 22 19     82%   23 1012.2 1013.2      
Jul 07 04:56 N 5 16.09 Mostly Cloudy BKN090 23 20     84%   23 1011.2 1012.2      
Jul 07 03:56 Calm 16.09 Mostly Clear FEW095 23 20     82%   24 1010.5 1011.5      
Jul 07 02:56 N 8 16.09 Clear CLR 23 21     85%   24 1010.2 1011.2      
Jul 07 01:56 Calm 16.09 Clear CLR 23 21     85%   24 1010.2 1010.9     0
Jul 07 00:56 Calm 16.09 Clear CLR 23 21     85%   24 1010.2 1011      
Jul 06 23:56 NW 5 16.09 Clear CLR 24 21     84%   25 1009.5 1010.5 0    
Jul 06 22:56 W 5 16.09 Mostly Clear FEW120 24 22     88%   25 1009.8 1010.8   0  
Jul 06 21:56 W 8 16.09 Mostly Cloudy FEW030 BKN065 24 22     88%   25 1009.8 1010.8      
Jul 06 20:56 W 5 16.09 Mostly Cloudy FEW080 BKN100 24 22     88%   25 1009.8 1010.7 0    
Jul 06 19:56 SSW 15 12.87 Light Rain FEW012 BKN060 24 22     85%   25 1009.5 1010.4 0   1
Jul 06 19:09 SW 13 9.66 Light Rain and Fog/Mist SCT060 BKN100 24 22     85%   25 1009.2   0    
Jul 06 18:56 SW 9 8.05 Thunderstorms and Rain BKN100 24 22     85%   25 1009.2 1010.2 0    
Jul 06 18:33 SW 9 6.44 Light Rain FEW060 BKN095 BKN110 24 22     85%   25 1009.2   0    
Jul 06 17:56 W 9 6.44 Rain SCT060 BKN070 25 22     82%   26 1009.5 1010.6 0    
Jul 06 16:29   12.87 Thunderstorms BKN044 BKN055 28 21     65%   30 1008.5   0    
Jul 06 16:24   16.09 Cloudy BKN044 BKN055 OVC100 29 21     63%   31 1008.1   0    
Jul 06 15:56 SW 15 16.09 Mostly Cloudy SCT049 BKN060 33 22     54%   37 1007.5 1008.4      
Jul 06 14:56 SW 21 16.09 Partly Cloudy FEW045 SCT055 34 22     51%   38 1007.8 1008.7      
Jul 06 12:56 WSW 18 16.09 Mostly Cloudy BKN042 33 22     52%   38 1010.2 1011      
Jul 06 11:56 SSW 21 16.09 Clear   33 23     56%   38 1010.8 1011.8      
Jul 06 09:56 SW 17 16.09 Mostly Clear FEW024 31 23     61%   35 1012.5 1013.4      
Jul 06 08:56 WSW 15 16.09 Partly Cloudy FEW020 SCT040 SCT200 29 22     65%   33 1013.2 1014.1      
Jul 06 07:56 SW 15 16.09 Partly Cloudy SCT180 28 22     72%   30 1013.6 1014.6      
Jul 06 06:56 SW 8 16.09 Clear CLR 26 21     74%   28 1014.2 1015.1      
Jul 06 05:56 WSW 5 16.09 Clear   25 21     77%   26 1014.2 1015      
Jul 06 05:23 SW 9 16.09 Partly Cloudy SCT018 24 21     79%   25 1014.2        
Jul 06 04:56 SW 11 16.09 Cloudy OVC018 25 21     77%   26 1014.6 1015.3      
Jul 06 04:28 SW 9 16.09 Mostly Cloudy BKN018 24 21     79%   25 1014.6        
Jul 06 03:56 SW 9 16.09 Mostly Clear FEW018 24 21     79%   25 1014.6 1015.5      
Jul 06 02:56 SW 11 16.09 Clear CLR 24 20     79%   24 1014.9 1016      
Jul 06 01:56 SW 11 16.09 Clear CLR 24 20     79%   24 1015.6 1016.4      
Jul 06 01:18 SSW 9 16.09 Partly Cloudy SCT015 24 20     79%   24 1015.9        
Jul 06 01:07 SSW 9 16.09 Mostly Cloudy BKN015 24 20     79%   24 1016.3        
Jul 06 00:56 SW 9 16.09 Cloudy OVC014 24 20     79%   24 1016.3 1017.3      
Jul 06 00:42 SW 9 16.09 Mostly Cloudy BKN014 24 20     79%   24 1016.6        
Jul 05 23:56 SW 13 16.09 Clear CLR 24 19     76%   24 1016.9 1017.9      
Jul 05 22:56 SSW 9 16.09 Clear CLR 24 19     76%   24 1016.9 1018      
Jul 05 21:56 S 15 16.09 Mostly Clear FEW180 26 19     69%   26 1017.3 1018      
Jul 05 20:56 S 11 16.09 Clear CLR 27 19     62%   28 1017.3 1018.1      
Jul 05 19:56 S 13 16.09 Clear CLR 28 18     55%   29 1017.3 1018.3      
Jul 05 18:56 S 13 16.09 Partly Cloudy SCT160 31 17     45%   31 1017.6 1018.5      
Jul 05 17:56 S 15 16.09 Clear   32 17     42%   32 1017.6 1018.5      
Jul 05 16:56 SSW 15 16.09 Mostly Cloudy FEW060 BKN200 33 17     39%   33 1017.6 1018.6      
Jul 05 15:56 SSW 21 16.09 Partly Cloudy SCT060 SCT250 33 17     38%   33 1018.6 1019.4      
Jul 05 14:56 S 21 16.09 Partly Cloudy SCT060 33 19     44%   34 1019 1019.7      
Jul 05 13:56 SW 18 16.09 Mostly Cloudy SCT070 BKN250 33 18     41%   34 1019.3 1020.3      
Jul 05 12:56 S 13 16.09 Partly Cloudy SCT200 33 18     41%   34 1020 1020.9      
Jul 05 11:56 S 13 16.09 Clear CLR 32 18     45%   33 1020.3 1021.3      
Jul 05 10:56 S 11 16.09 Clear CLR 31 18     45%   32 1020.7 1021.4      
Jul 05 09:56 SW 8 16.09 Partly Cloudy SCT200 30 17     46%   30 1021 1021.8      
Jul 05 08:56 SSW 5 16.09 Clear CLR 28 18     56%   29 1021 1022      
Jul 05 07:56 Calm 16.09 Partly Cloudy SCT200 25 18     66%   25 1021 1022.1      
Jul 05 06:56 SSW 5 16.09 Clear CLR 23 19     79%   23 1021 1022      
Jul 05 05:56 Calm 9.66 Haze CLR 20 17     84%     1020.7 1021.7      
Jul 05 04:56 Calm 9.66 Haze CLR 20 17     84%     1020.3 1021.3      
Jul 05 03:56 Calm 9.66 Haze CLR 21 18     84%     1020 1020.9      
Jul 05 02:56 Calm 14.48 Clear CLR 22 18     81%   22 1020 1020.9      
Jul 05 01:56 Calm 16.09 Clear   22 18     79%   23 1020.3 1021.1      
Jul 05 00:56 Calm 16.09 Clear CLR 22 18     79%   23 1020.3 1021.2      
Jul 04 23:56 Calm 16.09 Clear CLR 23 18     71%   24 1020.3 1021.1      
May 14 11:56 11 16.09 Cloudy OVC027 17 11     67%     1014.9 1016.1      
May 14 05:56 Calm 16.09 Clear   10 8     89%     1015.9 1017.2      
May 13 01:34 NNW 8 12.87 Mostly Cloudy BKN006 8 7     96% 7   1020        
May 12 16:56 NNW 8 4.83 Light Rain and Fog/Mist OVC005 9 8     96% 8   1019.7 1021.1 0 0  
Jun 11 22:56 SW 9 16.09 Clear CLR 26 16     56%   26 1012.9 1013.8      
Jun 11 12:56 WSW 13 16.09 Clear CLR 28 14     43%   28 1013.9 1014.8      
Jun 10 08:56 SW 9 16.09 Clear CLR 23 12     50%   22 1014.2 1015.3      
Jun 09 09:56 W 11 16.09 Partly Cloudy SCT150 21 7     39%     1003.7 1004.7      
Jun 09 03:56 Calm 16.09 Clear   13 8     74%     1006.1 1007.2      
Jun 08 11:56 8 16.09 Clear CLR 25 8     35%   24 1015.9 1016.9      
Jun 07 16:56 ESE 13 16.09 Mostly Clear FEW040 21 7     39%     1013.9 1015.1      
Jun 07 11:56 NE 15 16.09 Clear CLR 19 10     56%     1014.2 1015.6      
Jun 06 08:48 NE 18 3.22 Fog/Mist OVC004 9 8     93% 7   1009.8   0    
Notice The following observation data may not be complete
Jun 06 08:03   2.82 Fog/Mist BKN010 OVC014          %         0    
Jun 06 05:56 NE 26 2.41 Fog/Mist OVC009 9 8     90% 6   1009.2 1010.5 0    
Notice The following observation data may not be complete
Jun 06 03:56   9.66 Light Rain and Fog/Mist OVC010          %         0    
Jun 05 14:56 ENE 17 2.01 Fog/Mist VV004 13 12     90%     1010.8 1011.9